Preview of NWS' New Version of Forecast
This preview is not operational and should not be used for support decisions.

Regional Weather Roundup (RWR)

Issued by National Weather Service (NWS)

                            
000
ASUS43 KMKX 200900
RWRWI 

WISCONSIN REGIONAL WEATHER ROUNDUP
NATIONAL WEATHER SERVICE MILWAUKEE/SULLIVAN WI
400 AM CDT TUE AUG 20 2019

NOTE: "FAIR" INDICATES FEW OR NO CLOUDS BELOW 12,000 FEET WITH NO
SIGNIFICANT WEATHER AND/OR OBSTRUCTIONS TO VISIBILITY.

WIZ001-002-006>008-014>016-023>028-201000-
NORTHWEST WISCONSIN
  
CITY           SKY/WX    TMP DP  RH WIND       PRES   REMARKS
SUPERIOR ARPT  FAIR      59  58  94 CALM      29.95S                  
ASHLAND        FAIR      57  55  93 SW6       29.97S                  
HAYWARD        FAIR      51  49  92 CALM      30.00F                  
SIREN          FAIR      59  57  92 CALM      29.96F                  
CUMBERLAND     FAIR      55  54  94 CALM      29.99F                  
RICE LAKE      FAIR      57  41  54 E3        30.01F                  
CHETEK         FAIR      55  55 100 CALM      30.01F                  
LADYSMITH      FAIR      56  56  97 CALM      30.03F                  
EAU CLAIRE     FAIR      54  52  93 CALM      29.98F                  
MENOMONIE      FAIR      54  53  98 E5        29.98F                  
NEW RICHMOND   FAIR      60  58  94 CALM      29.97F                  
OSCEOLA        FAIR      60  60 100 CALM      29.99F                  
$$
 
WIZ003>005-009-010-017-018-201000-
NORTH CENTRAL WISCONSIN
  
CITY           SKY/WX    TMP DP  RH WIND       PRES   REMARKS
MANITOWISH WTR FAIR      53  53 100 CALM      30.03S                  
ARBOR VITAE    FAIR      55  52  90 CALM      30.03F                  
WOODRUFF       FAIR      55  52  90 CALM      30.03F                  
RHINELANDER    FAIR      52  51  97 CALM      30.05S FOG              
EAGLE RIVER    FAIR      51  51 100 CALM      30.04S                  
LAND O LAKES   FAIR      49  49  99 CALM      30.05F                  
PHILLIPS       FAIR      52  52 100 CALM      30.02F                  
TOMAHAWK       FAIR      47  47  97 CALM      30.05S                  
MEDFORD        FOG       50  50  99 CALM      30.03F VSB 1/4          
MERRILL        FAIR      46  46 100 CALM      30.06S                  
$$
 
WIZ029-030-035-036-043>047-201000-
CENTRAL WISCONSIN
  
CITY           SKY/WX    TMP DP  RH WIND       PRES   REMARKS
WAUSAU         FAIR      53  52  96 CALM      30.03F                  
MOSINEE        FOG       54  54 100 CALM      30.06S VSB 1/2          
MARSHFIELD     FAIR      55  53  93 CALM      30.03F                  
STEVENS POINT  FAIR      49  49 100 CALM      30.06S                  
WAUPACA        FAIR      54  53  97 CALM      30.05S                  
WAUTOMA        FAIR      53  53 100 CALM      30.06R                  
WISC RAPIDS    FAIR      54  52  93 CALM      30.05S                  
CAMP DOUGLAS   NOT AVBL                                               
$$
 
WIZ011>013-019>022-031-037>040-048>050-201000-
NORTHEAST WISCONSIN
  
CITY           SKY/WX    TMP DP  RH WIND       PRES   REMARKS
ANTIGO         FAIR      49  49  99 CALM      30.06S                  
SHAWANO        FAIR      56  55  96 CALM      30.05R                  
OCONTO         FAIR      51  50  95 CALM      30.04S                  
STURGEON BAY   FAIR      58  56  93 S3        30.05R                  
GREEN BAY      FAIR      58  56  93 CALM      30.04S                  
MANITOWOC      FAIR      56  56 100 CALM      30.05S                  
APPLETON       FAIR      59  50  72 W5        30.04R                  
CLINTONVILLE   FAIR      53  50  89 CALM      30.05R                  
OSHKOSH        FAIR      61  56  83 CALM      30.05R                  
$$
 
WIZ032>034-041-042-053>061-201000-
SOUTHWEST WISCONSIN
  
CITY           SKY/WX    TMP DP  RH WIND       PRES   REMARKS
LA CROSSE      FAIR      61  58  90 SE7       29.98F                  
SPARTA         FAIR      48  48  99 CALM      30.04F                  
VIROQUA        FAIR      61  61 100 E8        30.02F                  
BOSCOBEL       FOG       61  59  93 CALM      30.01F VSB 1/4          
PRAIRIE DU CHI FAIR      62  60  96 E6        30.00F FOG              
PLATTEVILLE    FAIR      65  64  94 NE5       30.02F                  
$$

WIZ056-057-062-063-064-067-068-201000-
SOUTH CENTRAL WISCONSIN
  
CITY           SKY/WX    TMP DP  RH WIND       PRES   REMARKS
REEDSBURG      FAIR      56  56 100 CALM      30.04F                  
BARABOO/DELLS  FAIR      56  55  95 S3        30.05F                  
LONE ROCK      FOG       60  60 100 CALM      30.03F VSB 1/4          
MINERAL POINT    N/A     63  63 100 NE3       30.05F                  
MADISON        FAIR      59  57  93 NE3       30.04S                  
MIDDLETON      FAIR      60  26  27 CALM      30.06S                  
WATERTOWN      MOCLDY    60  60 100 CALM      30.05R                  
MONROE         FAIR      66  64  91 N6        30.06R                  
JANESVILLE     FAIR      64  64 100 CALM      30.05R FOG              
$$
 
WIZ051-052-058>065-066-070>072-201000-
SOUTHEAST WISCONSIN
  
CITY           SKY/WX    TMP DP  RH WIND       PRES   REMARKS
MILWAUKEE      FAIR      70  68  93 CALM      30.04R                  
WAUKESHA       FAIR      63  61  94 CALM      30.06R FOG              
MILWAUKEE/TIMM FOG       66  63  88 CALM      30.06R VSB 1/4          
RACINE         FAIR      70  68  93 N3        30.05S                  
KENOSHA        MOCLDY    71  70  96 NE6       30.04R                  
FOND DU LAC    FAIR      59  56  89 CALM      30.05R                  
SHEBOYGAN      FAIR      57  56  96 CALM      30.05R                  
WEST BEND      FOG       59  59 100 CALM      30.05S VSB 1/2          
JUNEAU         FAIR      59  58  97 CALM      30.07R                  
$$

LSZ147-162-201000-
LAKE SUPERIOR
  
STATION/POSITION TIME  TEMP    WIND        PRES    WAVE
                       AIR SEA DIR/SP/G            HT/PER
                 (UTC) (F)     (DEG/KT/KT) (MB)    (FT/S)
W MID LAKE BUOY  0750   65 63  240/  8/ 10 1013.5R   2/ 4
DEVILS ISLAND    0800   69     230/  8/ 10 1013.8F
SAXON HARBOR     0830   66     190/  7/ 11 1013.9F
$$
 
LMZ867-665-643>646-201000-
LAKE MICHIGAN
  
STATION/POSITION TIME  TEMP    WIND        PRES    WAVE
                       AIR SEA DIR/SP/G            HT/PER
                 (UTC) (F)     (DEG/KT/KT) (MB)    (FT/S)
S GREEN BAY BUOY 0830   73 70  260/  8/  8 1017.2R
N MID LAKE BUOY  0840   69 69  230/ 10/ 12 1017.0R
NORTHPORT PIER   0840   62     180/  1/  3 1016.6S
KEWAUNEE LAKESHO 0824   60     300/  3/  5 1016.4
SHEBOYGAN LAKESH 0800   67        CALM     1017.2S
PORT WASHINGTON  0840   65     270/  2/  3 1018.3S
S MID LAKE BUOY  0840   74 74   50/  6/  6 1016.9R
KENOSHA   LAKESH 0800   72      10/  6/  7 1016.6
$$

TC  - TEMPERATURE IN CELSIUS
VSB - VISIBILITY IN STATUTE MILES
WCI - WIND CHILL INDEX
HX  - HEAT INDEX